TimeMST,TemperatureF,Dew PointF,Humidity,Sea Level PressureIn,VisibilityMPH,Wind Direction,Wind SpeedMPH,Gust SpeedMPH,PrecipitationIn,Events,Conditions,WindDirDegrees,DateUTC
12:15 AM,20.5,6.6,55,30.28,10.0,West,6.9,-,N/A,,Clear,260,2013-03-01 07:15:00
12:35 AM,18.7,7.0,60,30.27,10.0,Calm,Calm,-,N/A,,Clear,0,2013-03-01 07:35:00
12:55 AM,19.0,5.7,56,30.28,10.0,Calm,Calm,-,N/A,,Clear,0,2013-03-01 07:55:00
1:15 AM,15.6,3.6,59,30.28,10.0,Calm,Calm,-,N/A,,Clear,0,2013-03-01 08:15:00
1:35 AM,16.7,7.0,66,30.29,10.0,Calm,Calm,-,N/A,,Clear,0,2013-03-01 08:35:00
2:15 AM,14.2,4.1,64,30.30,10.0,ESE,5.8,-,N/A,,Clear,110,2013-03-01 09:15:00
2:35 AM,15.4,5.9,66,30.30,10.0,NE,3.5,-,N/A,,Clear,40,2013-03-01 09:35:00
3:15 AM,17.8,7.9,65,30.29,10.0,SW,3.5,-,N/A,,Clear,230,2013-03-01 10:15:00
3:35 AM,19.2,8.4,63,30.29,10.0,Calm,Calm,-,N/A,,Clear,0,2013-03-01 10:35:00
3:55 AM,19.8,7.7,60,30.28,10.0,Calm,Calm,-,N/A,,Clear,0,2013-03-01 10:55:00
4:15 AM,14.7,4.1,63,30.29,10.0,Calm,Calm,-,N/A,,Clear,0,2013-03-01 11:15:00
4:35 AM,14.5,6.1,69,30.29,10.0,Calm,Calm,-,N/A,,Clear,0,2013-03-01 11:35:00
4:55 AM,13.8,7.2,75,30.30,10.0,Calm,Calm,-,N/A,,Clear,0,2013-03-01 11:55:00
5:15 AM,10.6,5.5,80,30.30,10.0,Calm,Calm,-,N/A,,Clear,0,2013-03-01 12:15:00
5:35 AM,11.8,4.6,73,30.32,10.0,Calm,Calm,-,N/A,,Clear,0,2013-03-01 12:35:00
5:55 AM,11.7,6.3,79,30.32,10.0,North,3.5,-,N/A,,Clear,10,2013-03-01 12:55:00
6:15 AM,11.8,7.0,81,30.33,10.0,Calm,Calm,-,N/A,,Clear,0,2013-03-01 13:15:00
6:35 AM,11.3,6.8,82,30.32,10.0,Calm,Calm,-,N/A,,Clear,0,2013-03-01 13:35:00
6:55 AM,11.7,7.3,83,30.33,10.0,Calm,Calm,-,N/A,,Clear,0,2013-03-01 13:55:00
7:15 AM,14.4,7.9,75,30.34,10.0,Calm,Calm,-,N/A,,Clear,0,2013-03-01 14:15:00
7:35 AM,12.4,5.9,75,30.34,10.0,Calm,Calm,-,N/A,,Clear,0,2013-03-01 14:35:00
8:15 AM,21.9,9.5,59,30.36,10.0,Calm,Calm,-,N/A,,Clear,0,2013-03-01 15:15:00
8:35 AM,23.9,9.7,55,30.36,10.0,Calm,Calm,-,N/A,,Clear,0,2013-03-01 15:35:00
8:55 AM,27.3,9.5,47,30.36,10.0,Calm,Calm,-,N/A,,Clear,0,2013-03-01 15:55:00
9:15 AM,28.2,9.7,46,30.36,10.0,Calm,Calm,-,N/A,,Clear,0,2013-03-01 16:15:00
9:35 AM,29.1,9.9,45,30.36,10.0,NE,3.5,-,N/A,,Clear,50,2013-03-01 16:35:00
9:55 AM,30.0,9.5,42,30.36,10.0,Calm,Calm,-,N/A,,Clear,0,2013-03-01 16:55:00
10:15 AM,31.6,10.0,41,30.37,10.0,SSW,3.5,-,N/A,,Clear,210,2013-03-01 17:15:00
10:35 AM,30.9,12.0,46,30.36,10.0,WSW,3.5,-,N/A,,Clear,250,2013-03-01 17:35:00
10:55 AM,31.6,11.7,44,30.36,10.0,Calm,Calm,-,N/A,,Clear,0,2013-03-01 17:55:00
11:15 AM,32.5,11.7,42,30.37,10.0,Calm,Calm,-,N/A,,Clear,0,2013-03-01 18:15:00
11:35 AM,33.8,11.8,40,30.36,10.0,Calm,Calm,-,N/A,,Clear,0,2013-03-01 18:35:00
11:55 AM,36.1,10.6,35,30.36,10.0,South,3.5,-,N/A,,Clear,190,2013-03-01 18:55:00
12:35 PM,38.3,11.1,33,30.35,10.0,SSW,3.5,-,N/A,,Clear,200,2013-03-01 19:35:00
12:55 PM,39.6,12.6,33,30.34,10.0,South,4.6,-,N/A,,Clear,190,2013-03-01 19:55:00
1:15 PM,41.5,12.9,31,30.34,10.0,South,4.6,-,N/A,,Clear,180,2013-03-01 20:15:00
1:35 PM,41.9,12.4,30,30.32,10.0,SSW,4.6,-,N/A,,Clear,200,2013-03-01 20:35:00
2:15 PM,43.0,12.6,29,30.32,10.0,South,3.5,-,N/A,,Clear,180,2013-03-01 21:15:00
2:35 PM,43.7,12.6,28,30.31,10.0,SSW,4.6,-,N/A,,Clear,200,2013-03-01 21:35:00
2:55 PM,44.2,13.8,29,30.32,10.0,Calm,Calm,-,N/A,,Clear,0,2013-03-01 21:55:00
3:15 PM,44.8,13.6,28,30.31,10.0,South,3.5,-,N/A,,Clear,190,2013-03-01 22:15:00
3:35 PM,44.6,15.1,30,30.31,10.0,South,6.9,-,N/A,,Clear,180,2013-03-01 22:35:00
4:15 PM,45.0,14.5,29,30.31,10.0,SSW,4.6,-,N/A,,Clear,200,2013-03-01 23:15:00
4:35 PM,45.1,14.7,29,30.31,10.0,SSW,6.9,-,N/A,,Clear,200,2013-03-01 23:35:00
4:55 PM,44.8,14.9,30,30.32,10.0,South,4.6,-,N/A,,Clear,190,2013-03-01 23:55:00
5:15 PM,44.1,15.1,31,30.32,10.0,South,5.8,-,N/A,,Clear,180,2013-03-02 00:15:00
5:35 PM,44.6,14.7,30,30.33,10.0,Calm,Calm,-,N/A,,Clear,0,2013-03-02 00:35:00
5:55 PM,42.6,14.0,31,30.34,10.0,Calm,Calm,-,N/A,,Clear,0,2013-03-02 00:55:00
6:15 PM,32.9,20.1,59,30.34,10.0,Calm,Calm,-,N/A,,Clear,0,2013-03-02 01:15:00
6:35 PM,32.0,19.6,60,30.34,10.0,Calm,Calm,-,N/A,,Clear,0,2013-03-02 01:35:00
6:55 PM,33.1,18.1,54,30.34,10.0,NNE,3.5,-,N/A,,Clear,30,2013-03-02 01:55:00
7:15 PM,32.4,17.6,55,30.35,10.0,NE,4.6,-,N/A,,Clear,40,2013-03-02 02:15:00
7:35 PM,32.0,16.9,54,30.35,10.0,Calm,Calm,-,N/A,,Clear,0,2013-03-02 02:35:00
7:55 PM,33.4,16.5,50,30.36,10.0,NNE,4.6,-,N/A,,Clear,20,2013-03-02 02:55:00
8:15 PM,30.9,17.1,57,30.36,10.0,Calm,Calm,-,N/A,,Clear,0,2013-03-02 03:15:00
8:35 PM,32.0,16.7,53,30.36,10.0,NE,3.5,-,N/A,,Clear,40,2013-03-02 03:35:00
8:55 PM,26.8,16.3,65,30.36,10.0,Calm,Calm,-,N/A,,Clear,0,2013-03-02 03:55:00
9:15 PM,26.6,16.9,67,30.37,10.0,Calm,Calm,-,N/A,,Clear,0,2013-03-02 04:15:00
9:35 PM,25.5,16.2,68,30.38,10.0,Calm,Calm,-,N/A,,Clear,0,2013-03-02 04:35:00
9:55 PM,24.8,16.5,71,30.38,10.0,Calm,Calm,-,N/A,,Clear,0,2013-03-02 04:55:00
10:15 PM,26.1,17.4,70,30.38,10.0,NW,3.5,-,N/A,,Clear,310,2013-03-02 05:15:00
10:35 PM,29.3,16.7,59,30.38,10.0,Calm,Calm,-,N/A,,Clear,0,2013-03-02 05:35:00
10:55 PM,26.1,16.0,66,30.39,10.0,Calm,Calm,-,N/A,,Clear,0,2013-03-02 05:55:00
11:35 PM,19.9,14.2,78,30.40,10.0,Calm,Calm,-,N/A,,Clear,0,2013-03-02 06:35:00
11:55 PM,22.6,16.0,76,30.40,10.0,Calm,Calm,-,N/A,,Clear,0,2013-03-02 06:55:00